Location: Unspecified
(52.0000°N, 4.4000°E)
Time: 06:25:25
(UTC+00:00)

Landsat 5 - Pass Details

Date: 14 May 2025
Orbit: 510 x 610 km, 98.1° (Epoch: 14 June)

Event Time Altitude Azimuth Distance (km) Brightness Sun altitude
Rises 23:32:12 0° 9° (N) 2,771 8.5 -19.1°
Reaches altitude 10° 23:34:24 10° 2° (N) 1,886 7.3 -19.1°
Maximum altitude 23:38:14 40° 292° (WNW) 868 4.4 -19.1°
Enters shadow 23:40:08 25° 240° (WSW) 1,205 4.8 -19.1°
